Terug naar catalogus

STARLINK-11405

ActiefCommunicatieVLEO
NORAD 63008·PAYLOAD·🇺🇸 United States

Gelanceerd Feb 15, 2025 vanaf Cape Canaveral Space Force Station

Loading…

Volgende Passages (komende 24 uur)

TLE

VersSource: CelesTrak SupGP

Epoch: Sep 15, 2026, 03:26 UTC

1 63008C 25032D   26258.14354167  .00119680  00000+0  92932-3 0  2583
2 63008  43.0004 133.6220 0001637 272.0896 217.7716 15.70785532    13

Volg STARLINK-11405 in realtime met AllMySat

Download on the App Store